This demonstration page uses our WeatherBlox Daily Observations layout. Learn more.

Left ArrowRight Arrow

40.92945, -100.16068

Hourly Observations for November 19, 2018

Temp ( °F °C ) Dew Point ( °F °C ) Humidity (%) Winds ( mph kmh ) Pressure ( in mb ) Visibility ( mi km ) Precip ( " mm )
12:15 am 00:15 Clear 22 -5.3 19 -7.3 86 86 Calm 30.18 1022 10 16.0934 0 0
12:35 am 00:35 Clear 27 -3 24 -4.7 88 88 NW 10 17 30.15 1021 10 16.0934 0 0
12:55 am 00:55 Clear 29 -1.6 24 -4.5 81 81 WNW 10 17 30.15 1021 10 16.0934 0 0
1:15 am 01:15 Clear 29 -1.4 24 -4.3 81 81 WNW 12 19 30.15 1021 10 16.0934 0 0
1:35 am 01:35 Clear 29 -1.5 24 -4.3 81 81 WNW 9 15 30.15 1021 10 16.0934 0 0
1:55 am 01:55 Clear 29 -1.7 24 -4.3 83 83 WNW 12 19 30.15 1021 10 16.0934 0 0
2:15 am 02:15 Clear 29 -1.6 24 -4.2 83 83 WNW 10 17 30.15 1021 10 16.0934 0 0
2:35 am 02:35 Partly Cloudy 29 -1.5 25 -4 83 83 W 10 17 30.15 1021 10 16.0934 0 0
2:55 am 02:55 Partly Cloudy 29 -1.6 24 -4.5 81 81 W 12 19 30.15 1021 10 16.0934 0 0
3:15 am 03:15 Partly Cloudy 30 -1.3 24 -4.3 80 80 WNW 14 22 30.15 1021 10 16.0934 0 0
3:35 am 03:35 Clear 29 -1.5 24 -4.2 82 82 WNW 13 20 30.15 1021 10 16.0934 0 0
3:55 am 03:55 Partly Cloudy 29 -1.5 24 -4.2 82 82 WNW 8 13 30.15 1021 10 16.0934 0 0
4:15 am 04:15 Cloudy 30 -1.2 25 -3.8 83 83 WNW 10 17 30.15 1021 10 16.0934 0 0
4:35 am 04:35 Cloudy 31 -0.8 26 -3.5 82 82 WNW 10 17 30.15 1021 10 16.0934 0 0
4:55 am 04:55 Cloudy 31 -0.7 26 -3.4 82 82 WNW 9 15 30.15 1021 10 16.0934 0 0
5:15 am 05:15 Cloudy 31 -0.5 26 -3.1 83 83 WNW 9 15 30.18 1022 10 16.0934 0 0
5:35 am 05:35 Cloudy 32 -0.2 27 -3 82 82 WNW 7 11 30.18 1022 10 16.0934 0 0
5:55 am 05:55 Mostly Cloudy 31 -0.3 27 -3 82 82 WNW 8 13 30.18 1022 10 16.0934 0 0
6:15 am 06:15 Partly Cloudy 29 -1.4 26 -3.6 85 85 WNW 7 11 30.18 1022 10 16.0934 0 0
6:35 am 06:35 Clear 29 -1.5 26 -3.4 87 87 WNW 8 13 30.18 1022 10 16.0934 0 0
6:55 am 06:55 Clear 29 -1.5 25 -3.9 84 84 WNW 7 11 30.24 1024 10 16.0934 0 0
7:15 am 07:15 Partly Cloudy 30 -1.2 25 -3.7 83 83 WNW 9 15 30.21 1023 10 16.0934 0 0
7:35 am 07:35 Partly Cloudy 30 -1.3 25 -3.7 84 84 NW 12 19 30.21 1023 10 16.0934 0 0
7:55 am 07:55 Mostly Cloudy 31 -0.5 26 -3.3 82 82 WNW 10 17 30.21 1023 10 16.0934 0 0
8:15 am 08:15 Partly Cloudy 30 -1 26 -3.6 83 83 WNW 8 13 30.21 1023 10 16.0934 0 0
8:35 am 08:35 Partly Cloudy 32 0 27 -3 80 80 NW 14 22 30.24 1024 10 16.0934 0 0
8:55 am 08:55 Sunny 33 0.3 26 -3.1 78 78 NW 12 19 30.24 1024 10 16.0934 0 0
9:15 am 09:15 Sunny 34 1 28 -2.5 78 78 NW 13 20 30.24 1024 10 16.0934 0 0
9:35 am 09:35 Partly Cloudy 36 2.3 29 -1.9 74 74 NW 13 20 30.24 1024 10 16.0934 0 0
9:55 am 09:55 Partly Cloudy 39 3.8 30 -0.9 72 72 NW 12 19 30.24 1024 10 16.0934 0 0
10:15 am 10:15 Mostly Cloudy 40 4.2 31 -0.8 70 70 NW 14 22 30.24 1024 10 16.0934 0 0
10:35 am 10:35 Cloudy 39 4.1 30 -1.1 69 69 NW 13 20 30.24 1024 10 16.0934 0 0
10:55 am 10:55 Cloudy 39 4.1 30 -1 70 70 NW 13 20 30.24 1024 10 16.0934 0 0
11:15 am 11:15 Cloudy 41 5.1 31 -0.4 68 68 WNW 10 17 30.24 1024 10 16.0934 0 0
11:35 am 11:35 Cloudy 43 6.1 32 0 65 65 NW 14 22 30.21 1023 10 16.0934 0 0
11:55 am 11:55 Mostly Cloudy 43 6.2 32 -0.2 64 64 WNW 16 26 30.21 1023 10 16.0934 0 0
12:15 pm 12:15 Partly Cloudy 45 7.3 32 -0.2 59 59 NW 13 20 30.21 1023 10 16.0934 0 0
12:35 pm 12:35 Mostly Cloudy 46 7.9 32 0.2 59 59 N 18 30 30.21 1023 10 16.0934 0 0
12:55 pm 12:55 Cloudy 47 8.5 32 0.1 56 56 NNW 16 26 30.18 1022 10 16.0934 0 0
1:15 pm 13:15 Partly Cloudy 47 8.4 32 0 56 56 NNW 16 26 30.18 1022 10 16.0934 0 0
1:35 pm 13:35 Mostly Cloudy 46 7.7 32 -0.1 58 58 NNW 18 30 30.21 1023 10 16.0934 0 0
1:55 pm 13:55 Cloudy 45 7.3 32 0 60 60 NNW 15 24 30.21 1023 10 16.0934 0 0
2:15 pm 14:15 Cloudy 45 7.1 32 -0.1 61 61 NNW 15 24 30.21 1023 10 16.0934 0 0
2:35 pm 14:35 Cloudy with Haze 45 7.2 32 0 61 61 NNW 14 22 30.21 1023 5 8.0467 0 0
2:55 pm 14:55 Cloudy 45 7.3 32 -0.1 60 60 NNW 14 22 30.21 1023 10 16.0934 0 0
3:15 pm 15:15 Cloudy 45 7.3 32 -0.1 60 60 NNW 14 22 30.21 1023 10 16.0934 0 0
3:35 pm 15:35 Cloudy 45 7.4 32 0 60 60 NNW 10 17 30.21 1023 10 16.0934 0 0
3:55 pm 15:55 Cloudy 46 7.7 32 0 59 59 N 13 20 30.21 1023 10 16.0934 0 0
4:15 pm 16:15 Cloudy 45 7 32 0 61 61 N 8 13 30.24 1024 10 16.0934 0 0
4:35 pm 16:35 Cloudy 44 6.4 32 0.1 64 64 N 8 13 30.24 1024 10 16.0934 0 0
4:55 pm 16:55 Cloudy 42 5.8 32 0.1 67 67 N 3 6 30.24 1024 10 16.0934 0 0
5:15 pm 17:15 Cloudy 41 5.2 32 0 69 69 N 6 9 30.27 1025 10 16.0934 0 0
5:35 pm 17:35 Cloudy 41 4.8 32 -0.1 71 71 Calm 30.27 1025 10 16.0934 0 0
5:55 pm 17:55 Cloudy 40 4.4 32 -0.1 73 73 Calm 30.27 1025 10 16.0934 0 0
6:15 pm 18:15 Cloudy 40 4.5 32 -0.2 72 72 Calm 30.27 1025 10 16.0934 0 0
6:35 pm 18:35 Cloudy 38 3.6 31 -0.4 75 75 Calm 30.3 1026 10 16.0934 0 0
6:55 pm 18:55 Cloudy 38 3.6 32 -0.2 76 76 Calm 30.3 1026 10 16.0934 0 0
7:15 pm 19:15 Cloudy 38 3.5 32 -0.2 77 77 N 3 6 30.3 1026 10 16.0934 0 0
7:35 pm 19:35 Cloudy 37 2.6 31 -0.5 80 80 Calm 30.33 1027 10 16.0934 0 0
7:55 pm 19:55 Cloudy 38 3.2 32 -0.1 79 79 WNW 3 6 30.3 1026 10 16.0934 0 0
8:15 pm 20:15 Cloudy 37 2.6 31 -0.5 80 80 W 3 6 30.33 1027 10 16.0934 0 0
8:35 pm 20:35 Cloudy 35 1.9 31 -0.8 83 83 NW 3 6 30.33 1027 10 16.0934 0 0
8:55 pm 20:55 Cloudy 34 1.1 30 -1 86 86 WNW 3 6 30.33 1027 10 16.0934 0 0
9:15 pm 21:15 Cloudy 33 0.3 29 -1.6 87 87 Calm 30.36 1028 10 16.0934 0 0
9:35 pm 21:35 Cloudy 33 0.5 30 -1.3 88 88 W 3 6 30.36 1028 10 16.0934 0 0
9:55 pm 21:55 Cloudy 33 0.8 30 -1.1 87 87 Calm 30.36 1028 10 16.0934 0 0
10:15 pm 22:15 Cloudy 34 1 30 -1 87 87 W 3 6 30.36 1028 10 16.0934 0 0
10:35 pm 22:35 Mostly Cloudy 33 0.4 29 -1.4 88 88 Calm 30.36 1028 10 16.0934 0 0
10:55 pm 22:55 Mostly Cloudy 33 0.5 30 -1.2 89 89 Calm 30.36 1028 10 16.0934 0 0
11:15 pm 23:15 Cloudy 33 0.3 29 -1.7 87 87 Calm 30.36 1028 10 16.0934 0 0
11:35 pm 23:35 Cloudy 33 0.5 30 -1.3 88 88 Calm 30.36 1028 10 16.0934 0 0
11:55 pm 23:55 Cloudy 34 1 31 -0.8 88 88 Calm 30.36 1028 10 16.0934 0 0

Powered by AerisWeather